Location: Chircca
(13.7944°S, 72.0608°W)
Time: 05:24:53
(UTC+00:00)

Centaur Rocket - Pass Details

Date: 14 July 2020
Orbit: 256 x 9152 km, 18.1° (Epoch: 14 August)

Event Time Altitude Azimuth Distance (km) Brightness Sun altitude
Exits shadow 09:04:06 64° 194° (SSW) 1,283 4.3 -30.3°
Maximum altitude 09:04:36 66° 170° (S) 1,335 4.5 -30.2°
Drops below altitude 10° 09:21:07 10° 89° (E) 6,837 9.3 -26.4°
Sets 09:30:47 0° 87° (E) 9,630 10.4 -24.2°
